Location: Unspecified
(0.0000°N, 0.0000°E)
Time: 14:38:05
(UTC+00:00)

Transit 4A - Visible Passes

Search period start: 21 February 2019 00:00
Search period end: 03 March 2019 00:00
Orbit: 865 x 979 km, 66.8° (Epoch: 20 February)

Date Brightness Start Highest point End Pass type
(mag) Time Alt. Az. Time Alt. Az. Time Alt. Az.
28 Feb 10.2 20:37:15 10° NNW 20:37:53 13° NNW 20:37:53 13° NNW visible
01 Mar 9.6 19:03:32 10° NE 19:05:27 14° NE 19:05:27 14° NE visible
01 Mar 9.8 20:46:49 10° NW 20:49:09 23° NW 20:49:09 23° NW visible
02 Mar 8.9 19:11:04 10° NNE 19:16:10 25° ENE 19:17:21 24° E visible
02 Mar 9.7 20:56:50 10° NW 21:01:05 28° W 21:01:05 28° W visible
